Weather History for PHHI - May, 2012

Change the Weather History Date:

Thursday, May 3, 2012

  Actual Average (PHNL) Record (PHNL)
Temperature  
Mean Temperature 70 °F 77 °F  
Max Temperature 75 °F 84 °F 87 °F (2004)
Min Temperature 64 °F 70 °F 60 °F (1989)
Degree Days  
Heating Degree Days 0 0  
Month to date heating degree days 0  
Since 1 July heating degree days 0  
Cooling Degree Days 4 12  
Month to date cooling degree days 36  
Year to date cooling degree days 1143  
Growing Degree Days 20 (Base 50)    
Moisture  
Dew Point 63 °F    
Average Humidity 80    
Maximum Humidity 94    
Minimum Humidity 61    
Precipitation  
Precipitation 0.09 in 0.02 in 0.33 in (1988)
Month to date precipitation 0.07  
Year to date precipitation 7.02  
Snow  
Snow 0.00 in - - ()
Month to date snowfall  
Since 1 July snowfall  
Snow Depth -    
Sea Level Pressure  
Sea Level Pressure 30.06 in    
Wind  
Wind Speed 7 mph (NE)    
Max Wind Speed 18 mph    
Max Gust Speed 22 mph    
Visibility 10 miles    
Events Rain    
T = Trace of Precipitation, MM = Missing Value Source: NWS Daily Summary

Daily Weather History Graph

Daily Weather History Graph

Search for Another Location

Airport or City:

Trip Planner

Search our weather history database for the weather conditions in past years. The results will help you decide how hot, cold, wet, or windy it might be!

Date:

Astronomy

May. 03, 2012 Rise Set
Actual Time 5:59 AM HST 6:58 PM HST
Civil Twilight 5:36 AM HST 7:22 PM HST
Nautical Twilight 5:08 AM HST 7:49 PM HST
Astronomical Twilight 4:40 AM HST 8:18 PM HST
Moon 4:49 PM HST (5/3) 3:52 AM HST (5/3)
Length of Visible Light 13h 46m
Length of Day
12h 59m
Waxing Gibbous, 92% of the Moon is Illuminated
May 3
Waxing Gibbous
May 5
Full
May 12
Last Quarter
May 20
New
May 28
First Quarter

Hourly Weather History & Observations

Time (HST) Temp. Dew Point Humidity Pressure Visibility Wind Dir Wind Speed Gust Speed Precip Events Conditions
12:38 AM 68.0 °F 59.0 °F 73% 30.06 in 10.0 mi Variable 5.8 mph - N/A   Mostly Cloudy
12:39 AM 68.0 °F 59.0 °F 73% 30.06 in 10.0 mi SE 4.6 mph - N/A   Mostly Cloudy
12:40 AM 68.0 °F 60.8 °F 78% 30.07 in 9.0 mi Variable 3.5 mph - N/A   Light Drizzle
12:46 AM 68.0 °F 62.6 °F 83% 30.07 in 6.0 mi ENE 5.8 mph - N/A Rain Rain
12:49 AM 68.0 °F 62.6 °F 83% 30.06 in 5.0 mi NE 8.1 mph - N/A Rain Light Rain
12:53 AM 68.0 °F 62.6 °F 83% 30.06 in 6.0 mi East 9.2 mph 16.1 mph N/A Rain Light Rain
12:55 AM 67.5 °F 62.8 °F 85% 30.06 in 8.0 mi East 8.1 mph 16.1 mph 0.02 in Rain Light Rain
1:03 AM 66.2 °F 62.6 °F 88% 30.06 in 10.0 mi East 11.5 mph - N/A   Overcast
1:04 AM 66.2 °F 62.6 °F 88% 30.06 in 10.0 mi East 11.5 mph - N/A   Overcast
1:17 AM 66.2 °F 62.6 °F 88% 30.05 in 10.0 mi East 9.2 mph - N/A   Mostly Cloudy
1:18 AM 66.2 °F 62.6 °F 88% 30.05 in 10.0 mi ENE 9.2 mph - N/A   Mostly Cloudy
1:43 AM 68.0 °F 62.6 °F 83% 30.04 in 10.0 mi ENE 10.4 mph - N/A Rain Light Rain
1:55 AM 67.1 °F 61.9 °F 83% 30.04 in 10.0 mi ENE 6.9 mph - 0.00 in   Partly Cloudy
2:14 AM 68.0 °F 62.6 °F 83% 30.04 in 10.0 mi North 4.6 mph - N/A Rain Light Rain
2:31 AM 66.2 °F 62.6 °F 88% 30.03 in 10.0 mi WNW 4.6 mph - N/A   Light Drizzle
2:55 AM 66.4 °F 62.6 °F 88% 30.03 in 9.0 mi NE 6.9 mph - 0.01 in Rain Light Rain
3:09 AM 66.2 °F 62.6 °F 88% 30.02 in 10.0 mi ENE 10.4 mph - N/A   Light Drizzle
3:25 AM 66.2 °F 62.6 °F 88% 30.03 in 10.0 mi NNE 6.9 mph - N/A   Partly Cloudy
3:55 AM 66.6 °F 62.2 °F 86% 30.03 in 10.0 mi NNE 4.6 mph - 0.01 in   Scattered Clouds
4:14 AM 64.4 °F 62.6 °F 94% 30.04 in 9.0 mi Variable 4.6 mph - N/A Rain Light Rain
4:38 AM 66.2 °F 60.8 °F 83% 30.04 in 10.0 mi NE 3.5 mph - N/A   Partly Cloudy
4:50 AM 68.0 °F 60.8 °F 78% 30.03 in 10.0 mi NNE 3.5 mph - N/A   Drizzle
4:52 AM 68.0 °F 60.8 °F 78% 30.04 in 10.0 mi NNE 3.5 mph - N/A   Drizzle
4:55 AM 67.1 °F 61.0 °F 81% 30.03 in 10.0 mi NNE 3.5 mph - 0.00 in   Light Drizzle
5:26 AM 66.2 °F 62.6 °F 88% 30.04 in 10.0 mi Variable 3.5 mph - N/A   Light Drizzle
5:27 AM 66.2 °F 62.6 °F 88% 30.04 in 10.0 mi Variable 3.5 mph - N/A   Light Drizzle
5:28 AM 66.2 °F 62.6 °F 88% 30.04 in 10.0 mi Variable 3.5 mph - N/A   Light Drizzle
5:29 AM 66.2 °F 62.6 °F 88% 30.04 in 10.0 mi North 3.5 mph - N/A   Light Drizzle
5:49 AM 64.4 °F 62.6 °F 94% 30.04 in 10.0 mi NW 3.5 mph - N/A   Scattered Clouds
5:55 AM 65.3 °F 62.6 °F 91% 30.05 in 10.0 mi North 4.6 mph - 0.00 in   Scattered Clouds
5:56 AM 66.2 °F 62.6 °F 88% 30.05 in 10.0 mi NNE 4.6 mph - N/A   Light Drizzle
6:24 AM 66.2 °F 62.6 °F 88% 30.05 in 10.0 mi Calm Calm - N/A   Scattered Clouds
6:27 AM 66.2 °F 62.6 °F 88% 30.05 in 10.0 mi WNW 4.6 mph - N/A   Light Drizzle
6:38 AM 64.4 °F 62.6 °F 94% 30.06 in 7.0 mi West 3.5 mph - N/A Rain Light Rain
6:55 AM 65.8 °F 63.1 °F 91% 30.06 in 9.0 mi Calm Calm - 0.01 in   Light Drizzle
7:05 AM 66.2 °F 62.6 °F 88% 30.07 in 10.0 mi Calm Calm - N/A   Mostly Cloudy
7:14 AM 66.2 °F 64.4 °F 94% 30.06 in 8.0 mi Variable 5.8 mph - N/A Rain Light Rain
7:16 AM 66.2 °F 62.6 °F 88% 30.06 in 8.0 mi Variable 5.8 mph - N/A Rain Rain
7:20 AM 66.2 °F 62.6 °F 88% 30.07 in 4.0 mi Calm Calm - N/A Rain Rain
7:24 AM 66.2 °F 62.6 °F 88% 30.07 in 2.5 mi Calm Calm - N/A Rain Heavy Rain
7:29 AM 66.2 °F 62.6 °F 88% 30.07 in 3.0 mi NE 4.6 mph - N/A Rain Light Rain
7:48 AM 68.0 °F 62.6 °F 83% 30.08 in 10.0 mi Calm Calm - N/A   Mostly Cloudy
7:51 AM 68.0 °F 62.6 °F 83% 30.08 in 10.0 mi Calm Calm - N/A   Mostly Cloudy
7:52 AM 68.0 °F 62.6 °F 83% 30.08 in 10.0 mi Calm Calm - N/A   Mostly Cloudy
7:55 AM 67.6 °F 63.1 °F 85% 30.08 in 10.0 mi Calm Calm - 0.04 in   Mostly Cloudy
7:56 AM 68.0 °F 62.6 °F 83% 30.08 in 10.0 mi Calm Calm - N/A   Mostly Cloudy
8:00 AM 68.0 °F 64.4 °F 88% 30.08 in 10.0 mi Calm Calm - N/A   Mostly Cloudy
8:02 AM 68.0 °F 62.6 °F 83% 30.08 in 10.0 mi Calm Calm - N/A   Mostly Cloudy
8:19 AM 68.0 °F 62.6 °F 83% 30.08 in 10.0 mi NE 3.5 mph - N/A   Light Drizzle
8:29 AM 68.0 °F 62.6 °F 83% 30.08 in 10.0 mi ENE 4.6 mph - N/A   Mostly Cloudy
8:34 AM 68.0 °F 62.6 °F 83% 30.08 in 10.0 mi NNE 6.9 mph - N/A   Mostly Cloudy
8:36 AM 68.0 °F 62.6 °F 83% 30.08 in 10.0 mi NNE 5.8 mph - N/A Rain Light Rain
8:46 AM 68.0 °F 62.6 °F 83% 30.08 in 10.0 mi NE 4.6 mph - N/A   Mostly Cloudy
8:55 AM 70.0 °F 63.7 °F 80% 30.08 in 10.0 mi NNE 6.9 mph - 0.00 in   Mostly Cloudy
9:36 AM 71.6 °F 64.4 °F 78% 30.09 in 10.0 mi NE 11.5 mph 18.4 mph N/A Rain Light Rain
9:44 AM 69.8 °F 64.4 °F 83% 30.09 in 10.0 mi NE 12.7 mph - N/A   Scattered Clouds
9:55 AM 71.2 °F 64.0 °F 78% 30.08 in 10.0 mi NE 10.4 mph - 0.00 in   Mostly Cloudy
10:41 AM 73.4 °F 64.4 °F 73% 30.08 in 10.0 mi NE 9.2 mph - N/A   Mostly Cloudy
10:47 AM 73.4 °F 64.4 °F 73% 30.08 in 10.0 mi Variable 5.8 mph - N/A   Mostly Cloudy
10:49 AM 73.4 °F 64.4 °F 73% 30.08 in 10.0 mi ENE 8.1 mph - N/A   Overcast
10:55 AM 73.0 °F 63.0 °F 71% 30.08 in 10.0 mi NE 10.4 mph - N/A   Overcast
11:11 AM 73.4 °F 62.6 °F 69% 30.08 in 10.0 mi NNE 11.5 mph - N/A   Mostly Cloudy
11:55 AM 73.8 °F 62.8 °F 68% 30.07 in 10.0 mi NE 12.7 mph - N/A   Mostly Cloudy
11:58 AM 73.4 °F 62.6 °F 69% 30.07 in 10.0 mi ENE 11.5 mph - N/A   Light Drizzle
12:00 PM 73.4 °F 64.4 °F 73% 30.07 in 10.0 mi NE 12.7 mph - N/A   Light Drizzle
12:01 PM 73.4 °F 64.4 °F 73% 30.08 in 10.0 mi ENE 10.4 mph - N/A Rain Light Rain
12:12 PM 73.4 °F 64.4 °F 73% 30.07 in 10.0 mi NE 13.8 mph - N/A   Mostly Cloudy
12:18 PM 73.4 °F 64.4 °F 73% 30.07 in 10.0 mi NE 17.3 mph 21.9 mph N/A   Mostly Cloudy
12:19 PM 73.4 °F 64.4 °F 73% 30.07 in 10.0 mi NE 17.3 mph 21.9 mph N/A   Light Drizzle
12:31 PM 73.4 °F 64.4 °F 73% 30.07 in 9.0 mi ENE 15.0 mph - N/A Rain Light Rain
12:35 PM 73.4 °F 64.4 °F 73% 30.07 in 10.0 mi ENE 13.8 mph - N/A   Light Drizzle
12:43 PM 73.4 °F 64.4 °F 73% 30.07 in 10.0 mi NE 12.7 mph - N/A   Light Drizzle
12:44 PM 73.4 °F 64.4 °F 73% 30.07 in 10.0 mi NE 11.5 mph - N/A   Overcast
12:46 PM 73.4 °F 62.6 °F 69% 30.07 in 10.0 mi NE 11.5 mph - N/A   Overcast
12:47 PM 73.4 °F 64.4 °F 73% 30.07 in 10.0 mi NE 13.8 mph - N/A   Overcast
12:49 PM 73.4 °F 64.4 °F 73% 30.07 in 9.0 mi ENE 13.8 mph - N/A Rain Light Rain
12:55 PM 72.1 °F 66.0 °F 81% 30.07 in 8.0 mi ENE 12.7 mph - 0.00 in Rain Light Rain
1:33 PM 71.6 °F 66.2 °F 83% 30.06 in 10.0 mi NE 17.3 mph - N/A   Mostly Cloudy
1:34 PM 71.6 °F 66.2 °F 83% 30.06 in 10.0 mi NE 17.3 mph - N/A   Mostly Cloudy
1:35 PM 71.6 °F 66.2 °F 83% 30.06 in 10.0 mi NE 17.3 mph - N/A   Mostly Cloudy
1:37 PM 71.6 °F 66.2 °F 83% 30.06 in 10.0 mi ENE 16.1 mph - N/A   Mostly Cloudy
1:42 PM 71.6 °F 64.4 °F 78% 30.05 in 10.0 mi NE 18.4 mph - N/A   Light Drizzle
1:45 PM 71.6 °F 64.4 °F 78% 30.05 in 10.0 mi NE 18.4 mph - N/A   Mostly Cloudy
2:55 PM 75.7 °F 61.3 °F 61% 30.04 in 10.0 mi East 15.0 mph 21.9 mph N/A   Partly Cloudy
3:55 PM 74.5 °F 61.2 °F 63% 30.04 in 10.0 mi East 9.2 mph 17.3 mph N/A   Mostly Cloudy
4:32 PM 73.4 °F 62.6 °F 69% 30.04 in 10.0 mi NNE 5.8 mph - N/A   Mostly Cloudy
4:55 PM 72.3 °F 61.2 °F 68% 30.04 in 10.0 mi Variable 5.8 mph - N/A   Overcast
5:52 PM 71.6 °F 60.8 °F 69% 30.05 in 10.0 mi Variable 3.5 mph - N/A   Mostly Cloudy
5:55 PM 71.1 °F 61.2 °F 71% 30.05 in 10.0 mi NNE 4.6 mph - N/A   Scattered Clouds
6:18 PM 71.6 °F 60.8 °F 69% 30.06 in 10.0 mi East 3.5 mph - N/A   Mostly Cloudy
6:55 PM 69.8 °F 61.0 °F 73% 30.06 in 10.0 mi Calm Calm - N/A   Overcast
7:55 PM 69.8 °F 61.3 °F 74% 30.08 in 10.0 mi East 5.8 mph - N/A   Overcast
8:55 PM 70.0 °F 60.8 °F 73% 30.09 in 10.0 mi NW 4.6 mph - N/A   Mostly Cloudy
9:55 PM 70.0 °F 61.3 °F 74% 30.10 in 10.0 mi Variable 3.5 mph - N/A   Mostly Cloudy
10:55 PM 69.3 °F 62.1 °F 78% 30.10 in 10.0 mi Variable 3.5 mph - N/A   Overcast
11:44 PM 69.8 °F 62.6 °F 78% 30.08 in 10.0 mi ENE 9.2 mph - N/A   Overcast
11:47 PM 69.8 °F 62.6 °F 78% 30.08 in 10.0 mi Variable 5.8 mph - N/A   Overcast
11:55 PM 69.3 °F 62.2 °F 78% 30.08 in 10.0 mi ENE 13.8 mph 17.3 mph N/A   Mostly Cloudy
11:56 PM 69.8 °F 62.6 °F 78% 30.08 in 10.0 mi East 13.8 mph 17.3 mph N/A   Mostly Cloudy